Simultaneous Nadir Overpasses (SNOs) Predictions

Prediction of SNOs between AURA and NPP Satellite Orbit:

Table of predicted SNOs for the next 14.0 days since TLE Epoch: 1/10/2025
Index Date (AURA) Time (AURA) Lat,Lon (AURA) SZA (AURA ) Date (NPP) Time (NPP) Lat,Lon (NPP) SZA (NPP ) Distance(km) Time Diff (sec)
1 01/12/2025 02:00:19 -80.96,-114.51 69.22 01/12/2025 01:59:56 -80.97,-114.33 69.23 3.28 23
2 01/12/2025 02:49:38 81.01, 53.79 110.69 01/12/2025 02:50:38 81.01, 53.82 110.65 0.51 60
3 01/14/2025 13:13:38 -80.96, 77.12 69.59 01/14/2025 13:12:24 -80.96, 77.29 69.57 2.90 74
4 01/14/2025 14:02:58 80.98,-114.96 110.37 01/14/2025 14:03:07 80.98,-114.95 110.36 0.42 9
5 01/17/2025 01:16:16 80.96, 76.51 109.97 01/17/2025 01:15:35 80.97, 76.59 109.98 1.55 41
6 01/17/2025 02:05:36 -81.00,-115.28 70.12 01/17/2025 02:06:19 -80.99,-115.45 70.12 3.05 43
7 01/19/2025 13:18:53 -80.97, 76.08 70.55 01/19/2025 13:18:47 -80.98, 76.05 70.54 0.57 6
8 01/22/2025 00:32:08 -80.96, -92.34 71.04 01/22/2025 00:31:15 -80.96, -92.51 70.98 3.15 53
9 01/22/2025 01:21:27 81.00, 75.85 108.88 01/22/2025 01:21:56 81.00, 75.95 108.85 1.79 29
10 01/24/2025 12:34:41 80.98, -92.73 108.37 01/24/2025 12:34:24 80.98, -92.68 108.37 0.89 17



Historial Predications of SNOs between AURA and NPP
